Weather in Kozlovo

Russia / Zabaykalsky Krai     51°12′24″N   118°55′51″E
temp.,
°C
wind,
m/s
gust,
m/s
humid.,
%
clouds,
%
prec.,
mm/h
press.,
hPa
HPBL,
m
15 april, thu
thu1500:00−3wnw2263100 0.0 101010
03:00−4wnw2264100 0.0 101011
06:00−4nw2162100 0.0 101012
09:000ne1146100 0.0 1009297
12:00+3ene2330100 0.0 10071901
15:00+4ne2326100 0.0 10062384
18:00+3ne3333100 0.0 10071817
21:000nne2246100 0.0 100944
16 april, fri
fri1600:00−1nnw2251100 0.0 101123
03:00−3nnw3242100 0.0 101236
06:00−4nnw345058 0.0 101258
09:00+1nne474089 0.0 1014936
12:00+4nne5728100 0.0 10132938
15:00+6nne5724100 0.0 10123062
18:00+6nne4622100 0.0 10132560
21:00+1nnw22335 0.0 101610
17 april, sat
sat1700:00−2w22360 0.0 101610
03:00−3sw11370 0.0 101610
06:00−4ssw22395 0.0 101610
09:00+4ssw35255 0.0 1013528
12:00+9sw57270 0.0 10091536
15:00+13wsw572530 0.0 10061935
18:00+13w582497 0.0 10052129
21:00+7sw22385 0.0 100710
18 april, sun
sun1800:00+5sw22444 0.0 100710
03:00+3w114911 0.0 100710
06:00+2nw225462 0.0 100913
09:00+8nnw2442100 0.0 1009394
12:00+12n332462 0.0 10081314
15:00+14n122088 0.0 10062185
18:00+14ese232063 0.0 10062406
21:00+9sse2232100 0.0 100711
19 april, mon
mon1900:00+7s22395 0.0 100711
03:00+6wnw2249100 0.0 100816
06:00+4nw32565 0.0 101026
09:00+7nw68595 0.0 10121183
12:00+9nw79240 0.0 10141809
15:00+9nw710160 0.0 10152347
18:00+8nnw69195 0.0 10172299
21:00+3n33290 0.0 102139